DW8052 Weather Reports


time (UTC)temp
C
wind
direction
speed
KPH
gust
KPH
rain 1hr
cm
rain 24hr
cm
rain mn
cm
humidity
%
barometer
mb
20260904024208 20 115 14.5 16.1 0.00 0.00 0.00 51 1018.8
20260904023708 20 121 9.7 14.5 0.00 0.00 0.00 49 1018.9
20260904023208 20 85 6.4 11.3 0.00 0.00 0.00 52 1019.0
20260904022708 20 21 4.8 11.3 0.00 0.00 0.00 53 1018.9
20260904022209 20 95 11.3 16.1 0.00 0.00 0.00 50 1019.1
20260904021208 21 100 8.0 11.3 0.00 0.00 0.00 50 1019.4
20260904020708 21 92 6.4 11.3 0.00 0.00 0.00 50 1019.4
20260904020208 21 80 9.7 12.9 0.00 0.00 0.00 50 1019.4
20260904015708 21 94 8.0 12.9 0.00 0.00 0.00 49 1019.5
20260904015208 21 72 8.0 12.9 0.00 0.00 0.00 48 1019.8
20260904014709 21 101 9.7 12.9 0.00 0.00 0.00 45 1019.9
20260904014208 21 125 11.3 12.9 0.00 0.00 0.00 44 1020.1
20260904013708 21 104 4.8 9.7 0.00 0.00 0.00 42 1020.0
20260904013208 21 95 6.4 11.3 0.00 0.00 0.00 41 1020.2
20260904012208 21 117 8.0 11.3 0.00 0.00 0.00 44 1020.6
20260904011208 22 106 8.0 11.3 0.00 0.00 0.00 46 1020.5
20260904010708 22 105 4.8 8.0 0.00 0.00 0.00 43 1020.6
20260904010208 22 92 1.6 4.8 0.00 0.00 0.00 41 1020.7
20260904005708 22 113 6.4 12.9 0.00 0.00 0.00 41 1020.9
20260904005208 23 108 4.8 8.0 0.00 0.00 0.00 42 1020.9
20260904004708 22 98 3.2 4.8 0.00 0.00 0.00 38 1020.7
20260904004207 22 295 3.2 4.8 0.00 0.00 0.00 36 1020.7
20260904003707 22 246 3.2 4.8 0.00 0.00 0.00 37 1020.8
20260904003207 21 218 3.2 19.3 0.00 0.00 0.00 38 1020.8
20260904002208 21 273 4.8 11.3 0.00 0.00 0.00 38 1020.9
20260904001708 21 277 9.7 16.1 0.00 0.00 0.00 34 1020.8
20260904000708 21 255 3.2 8.0 0.00 0.00 0.00 37 1021.0
20260904000207 21 242 6.4 11.3 0.00 0.00 0.00 39 1021.1
20260903235208 20 245 11.3 16.1 0.00 0.00 0.00 40 1021.1
20260903234208 20 275 8.0 12.9 0.00 0.00 0.00 44 1021.2
20260903233708 19 265 11.3 19.3 0.00 0.00 0.00 45 1021.3
20260903233207 19 260 16.1 19.3 0.00 0.00 0.00 45 1021.5
20260903232708 19 276 12.9 20.9 0.00 0.00 0.00 45 1021.6
20260903232208 19 262 11.3 19.3 0.00 0.00 0.00 46 1021.6
20260903231707 18 293 9.7 19.3 0.00 0.00 0.00 48 1021.6
20260903231207 18 261 19.3 24.1 0.00 0.00 0.00 47 1021.6
20260903230707 18 269 19.3 27.4 0.00 0.00 0.00 48 1021.8
20260903225708 18 268 20.9 25.7 0.00 0.00 0.00 48 1021.7
20260903225208 18 270 16.1 22.5 0.00 0.00 0.00 49 1021.7
20260903224707 17 270 9.7 20.9 0.00 0.00 0.00 50 1021.9
20260903224208 17 278 16.1 24.1 0.00 0.00 0.00 51 1022.0
20260903223708 17 274 17.7 22.5 0.00 0.00 0.00 51 1021.6
20260903222707 17 268 20.9 24.1 0.00 0.00 0.00 51 1021.6
20260903222208 17 263 16.1 24.1 0.00 0.00 0.00 52 1021.8
20260903221708 17 252 16.1 20.9 0.00 0.00 0.00 53 1021.7
20260903221208 16 267 14.5 25.7 0.00 0.00 0.00 54 1021.9
20260903220707 16 269 19.3 25.7 0.00 0.00 0.00 53 1021.7
20260903220208 16 267 14.5 29.0 0.00 0.00 0.00 54 1021.8
20260903215707 16 261 16.1 24.1 0.00 0.00 0.00 54 1021.8
20260903215208 16 264 12.9 25.7 0.00 0.00 0.00 56 1021.6
20260903214707 16 279 9.7 20.9 0.00 0.00 0.00 56 1021.9
20260903214208 16 283 9.7 29.0 0.00 0.00 0.00 56 1021.6
20260903213208 16 273 14.5 19.3 0.00 0.00 0.00 56 1021.6
20260903212707 15 274 11.3 25.7 0.00 0.00 0.00 57 1021.4
20260903211707 15 269 14.5 20.9 0.00 0.00 0.00 57 1021.3
20260903210707 15 269 9.7 19.3 0.00 0.00 0.00 59 1021.3
20260903205208 14 270 14.5 20.9 0.00 0.00 0.00 60 1021.1
20260903204707 14 266 19.3 25.7 0.00 0.00 0.00 60 1021.0
20260903204208 14 273 19.3 24.1 0.00 0.00 0.00 60 1021.1
20260903203707 14 258 12.9 24.1 0.00 0.00 0.00 61 1021.1
20260903203207 13 259 19.3 24.1 0.00 0.00 0.00 61 1020.9
20260903202707 13 254 20.9 29.0 0.00 0.00 0.00 61 1020.8
20260903202208 13 257 19.3 29.0 0.00 0.00 0.00 61 1020.8
20260903201707 13 256 22.5 29.0 0.00 0.00 0.00 61 1020.7
20260903201208 13 253 22.5 29.0 0.00 0.00 0.00 61 1020.8
20260903200707 13 246 20.9 27.4 0.00 0.00 0.00 61 1020.9
20260903200208 13 254 22.5 27.4 0.00 0.00 0.00 61 1020.7
20260903195707 13 260 20.9 32.2 0.00 0.00 0.00 61 1020.5
20260903195207 13 263 17.7 24.1 0.00 0.00 0.00 61 1020.6
20260903194707 13 251 19.3 27.4 0.00 0.00 0.00 60 1020.7
20260903194208 13 252 20.9 27.4 0.00 0.00 0.00 60 1020.5
20260903193207 13 254 20.9 29.0 0.00 0.00 0.00 60 1020.2
20260903192707 13 251 17.7 27.4 0.00 0.00 0.00 60 1020.1
20260903192208 13 260 22.5 32.2 0.00 0.00 0.00 60 1019.9
20260903191708 13 255 19.3 29.0 0.00 0.00 0.00 60 1020.0
20260903191207 14 259 19.3 27.4 0.00 0.00 0.00 60 1019.9
20260903190707 14 264 17.7 25.7 0.00 0.00 0.00 60 1019.9
20260903190207 14 261 17.7 27.4 0.00 0.00 0.00 60 1020.0
20260903185207 14 261 22.5 32.2 0.00 0.00 0.00 60 1020.0
20260903184207 14 260 22.5 32.2 0.00 0.00 0.00 60 1019.9
20260903183708 14 263 19.3 29.0 0.00 0.00 0.00 60 1019.8
20260903183207 14 262 22.5 32.2 0.00 0.00 0.00 60 1019.7
20260903182707 14 263 24.1 33.8 0.00 0.00 0.00 59 1019.6
20260903182207 14 261 22.5 32.2 0.00 0.00 0.00 59 1019.6
20260903181707 14 268 25.7 38.6 0.00 0.00 0.00 59 1019.5
20260903181207 14 262 22.5 35.4 0.00 0.00 0.00 59 1019.2
20260903180707 14 254 25.7 33.8 0.00 0.00 0.00 59 1019.3
20260903180208 14 260 19.3 33.8 0.00 0.00 0.00 59 1019.3
20260903175707 14 265 20.9 35.4 0.00 0.00 0.00 58 1019.3
20260903174707 14 264 20.9 32.2 0.00 0.00 0.00 58 1019.2
20260903174207 14 263 24.1 35.4 0.00 0.00 0.00 58 1019.2
20260903173206 14 271 24.1 32.2 0.00 0.00 0.00 58 1019.2
20260903172707 14 266 25.7 33.8 0.00 0.00 0.00 58 1019.4
20260903172207 14 261 24.1 35.4 0.00 0.00 0.00 57 1019.2
20260903171207 14 264 25.7 35.4 0.00 0.00 0.00 57 1019.0
20260903170707 14 271 22.5 32.2 0.00 0.00 0.00 57 1019.0
20260903170207 14 266 25.7 33.8 0.00 0.00 0.00 57 1019.3
20260903165707 14 269 25.7 33.8 0.00 0.00 0.00 57 1019.1
20260903165207 14 268 25.7 32.2 0.00 0.00 0.00 56 1019.0
20260903164207 15 267 22.5 32.2 0.00 0.00 0.00 56 1019.4
20260903163707 14 266 25.7 38.6 0.00 0.00 0.00 56 1019.2
20260903163206 14 267 27.4 37.0 0.00 0.00 0.00 56 1019.1
20260903162707 14 258 25.7 32.2 0.00 0.00 0.00 56 1019.0
20260903162207 14 263 22.5 32.2 0.00 0.00 0.00 56 1019.3
20260903161707 14 268 22.5 33.8 0.00 0.00 0.00 56 1019.3
20260903161207 14 275 22.5 33.8 0.00 0.00 0.00 56 1019.3
20260903160707 14 278 22.5 32.2 0.00 0.00 0.00 57 1019.4
20260903160207 14 276 22.5 32.2 0.00 0.00 0.00 57 1019.4
20260903155707 14 281 16.1 25.7 0.00 0.00 0.00 56 1019.4
20260903154206 14 283 20.9 25.7 0.00 0.00 0.00 56 1019.9
20260903153706 14 279 11.3 27.4 0.00 0.00 0.00 55 1019.9
20260903153207 14 281 19.3 32.2 0.00 0.00 0.00 56 1019.9
20260903152706 14 278 27.4 32.2 0.00 0.00 0.00 56 1019.5
20260903152207 14 279 20.9 32.2 0.00 0.00 0.00 56 1019.7
20260903151707 14 286 19.3 24.1 0.00 0.00 0.00 56 1020.1
20260903151207 14 285 14.5 22.5 0.00 0.00 0.00 56 1020.1
20260903150207 14 288 19.3 22.5 0.00 0.00 0.00 56 1019.9
20260903145707 15 292 16.1 20.9 0.00 0.00 0.00 56 1020.0
20260903144706 15 286 19.3 25.7 0.00 0.00 0.00 55 1020.1
20260903144207 15 289 17.7 22.5 0.00 0.00 0.00 55 1020.0
20260903143707 15 282 14.5 19.3 0.00 0.00 0.00 55 1020.0
20260903143206 15 289 14.5 19.3 0.00 0.00 0.00 54 1020.0
20260903142706 15 293 14.5 20.9 0.00 0.00 0.00 54 1019.9
20260903142207 15 307 14.5 20.9 0.00 0.00 0.00 54 1020.1
20260903141706 15 299 9.7 14.5 0.00 0.00 0.00 54 1019.9
20260903141207 15 311 11.3 22.5 0.00 0.00 0.00 53 1019.9
20260903140706 15 294 17.7 24.1 0.00 0.00 0.00 53 1019.8
20260903140206 15 291 11.3 20.9 0.00 0.00 0.00 53 1020.1
20260903135707 15 288 11.3 20.9 0.00 0.00 0.00 53 1020.2
20260903135207 15 285 19.3 25.7 0.00 0.00 0.00 53 1019.7
20260903134707 15 281 20.9 27.4 0.00 0.00 0.00 52 1019.9
20260903134207 15 279 19.3 27.4 0.00 0.00 0.00 52 1019.8
20260903133207 16 291 16.1 20.9 0.00 0.00 0.00 52 1019.8
20260903132706 16 287 11.3 16.1 0.00 0.00 0.00 51 1019.8
20260903132206 16 286 9.7 14.5 0.00 0.00 0.00 51 1020.1
20260903131706 16 267 11.3 16.1 0.00 0.00 0.00 51 1019.8
20260903130207 16 259 11.3 19.3 0.00 0.00 0.00 51 1019.8
20260903125707 16 259 9.7 14.5 0.00 0.00 0.00 51 1019.7
20260903125206 16 265 9.7 16.1 0.00 0.00 0.00 51 1019.5
20260903124706 16 272 14.5 24.1 0.00 0.00 0.00 50 1019.6
20260903124207 16 269 14.5 25.7 0.00 0.00 0.00 50 1019.3
20260903123706 16 272 11.3 22.5 0.00 0.00 0.00 50 1019.4
20260903123207 16 245 11.3 19.3 0.00 0.00 0.00 50 1019.5
20260903122206 16 255 22.5 33.8 0.00 0.00 0.00 50 1019.3
20260903121707 16 254 29.0 45.1 0.00 0.00 0.00 50 1018.9
20260903121206 16 242 30.6 51.5 0.00 0.00 0.00 50 1018.9
20260903120714 17 254 41.8 57.9 0.00 0.00 0.00 49 1018.6
20260903120206 16 257 33.8 49.9 0.00 0.00 0.00 50 1018.6
20260903115706 17 256 29.0 41.8 0.00 0.00 0.00 50 1018.6
20260903114706 17 248 35.4 45.1 0.00 0.00 0.00 50 1018.5
20260903114207 17 248 35.4 48.3 0.00 0.00 0.00 50 1018.3
20260903113207 17 246 35.4 51.5 0.00 0.00 0.00 49 1018.0
20260903112706 17 247 38.6 53.1 0.00 0.00 0.00 49 1017.9
20260903111706 17 240 32.2 38.6 0.00 0.00 0.00 49 1018.0
20260903111207 17 238 30.6 41.8 0.00 0.00 0.00 49 1018.0
20260903110706 17 245 35.4 41.8 0.00 0.00 0.00 48 1018.0
20260903110207 17 247 32.2 45.1 0.00 0.00 0.00 48 1017.7
20260903105706 17 248 30.6 46.7 0.00 0.00 0.00 48 1017.7
20260903105206 17 247 33.8 45.1 0.00 0.00 0.00 48 1017.5
20260903104706 17 244 32.2 41.8 0.00 0.00 0.00 47 1017.2
20260903104206 18 247 30.6 41.8 0.00 0.00 0.00 47 1017.2
20260903103706 18 244 27.4 40.2 0.00 0.00 0.00 47 1017.1
20260903103206 18 240 27.4 37.0 0.00 0.00 0.00 45 1017.3
20260903102206 18 229 11.3 22.5 0.00 0.00 0.00 42 1017.1
20260903101706 18 222 11.3 19.3 0.00 0.00 0.00 41 1017.0
20260903100707 18 233 16.1 29.0 0.00 0.00 0.00 40 1016.8
20260903100206 19 236 20.9 29.0 0.00 0.00 0.00 39 1016.4
20260903095706 19 228 17.7 25.7 0.00 0.00 0.00 37 1016.5
20260903095206 19 219 11.3 19.3 0.00 0.00 0.00 35 1016.4
20260903094706 20 215 11.3 20.9 0.00 0.00 0.00 35 1016.3
20260903094206 20 222 12.9 20.9 0.00 0.00 0.00 35 1016.3
20260903093706 20 234 11.3 19.3 0.00 0.00 0.00 35 1016.1
20260903093206 20 230 11.3 22.5 0.00 0.00 0.00 35 1016.0
20260903092706 20 241 19.3 27.4 0.00 0.00 0.00 34 1015.9
20260903092206 20 252 22.5 29.0 0.00 0.00 0.00 33 1015.5
20260903091706 20 250 20.9 32.2 0.00 0.00 0.00 33 1015.4
20260903091205 20 251 24.1 32.2 0.00 0.00 0.00 33 1015.1
20260903090706 20 256 24.1 27.4 0.00 0.00 0.00 33 1015.0
20260903090207 21 253 25.7 29.0 0.00 0.00 0.00 33 1014.8
20260903085706 21 249 19.3 27.4 0.00 0.00 0.00 33 1014.9
20260903085206 21 233 14.5 22.5 0.00 0.00 0.00 33 1015.0
20260903084206 21 225 11.3 19.3 0.00 0.00 0.00 32 1015.0
20260903083706 21 235 11.3 19.3 0.00 0.00 0.00 33 1014.7
20260903082206 22 266 16.1 20.9 0.00 0.00 0.00 29 1014.4
20260903081706 22 270 17.7 20.9 0.00 0.00 0.00 29 1014.0
20260903081206 22 269 16.1 22.5 0.00 0.00 0.00 28 1014.2
20260903080706 22 268 16.1 20.9 0.00 0.00 0.00 28 1014.1
20260903080206 22 265 17.7 27.4 0.00 0.00 0.00 28 1014.1
20260903075706 22 253 17.7 29.0 0.00 0.00 0.00 28 1014.0
20260903074706 22 260 19.3 32.2 0.00 0.00 0.00 27 1013.6
20260903074205 22 258 24.1 35.4 0.00 0.00 0.00 27 1013.3
20260903073706 23 268 29.0 41.8 0.00 0.00 0.00 27 1013.3
20260903073206 23 259 27.4 37.0 0.00 0.00 0.00 27 1013.2
20260903072706 23 264 30.6 41.8 0.00 0.00 0.00 27 1013.1
20260903071706 23 272 27.4 38.6 0.00 0.00 0.00 26 1012.8
20260903071206 23 266 25.7 35.4 0.00 0.00 0.00 26 1012.8
20260903070706 23 273 32.2 41.8 0.00 0.00 0.00 25 1012.7
20260903070206 24 270 22.5 38.6 0.00 0.00 0.00 25 1012.8
20260903065705 24 267 25.7 40.2 0.00 0.00 0.00 26 1012.6
20260903065206 24 260 27.4 38.6 0.00 0.00 0.00 25 1012.4
20260903064706 24 265 17.7 33.8 0.00 0.00 0.00 25 1012.4
20260903064206 25 265 25.7 32.2 0.00 0.00 0.00 25 1012.3
20260903063706 25 243 17.7 33.8 0.00 0.00 0.00 25 1012.3
20260903063205 25 280 16.1 24.1 0.00 0.00 0.00 26 1012.1
20260903062705 25 260 16.1 24.1 0.00 0.00 0.00 26 1011.9
20260903062205 25 261 24.1 37.0 0.00 0.00 0.00 24 1011.9
20260903061705 25 269 20.9 32.2 0.00 0.00 0.00 24 1011.6
20260903061205 25 272 20.9 40.2 0.00 0.00 0.00 24 1011.7
20260903060706 25 263 22.5 37.0 0.00 0.00 0.00 24 1011.6
20260903060206 25 246 24.1 37.0 0.00 0.00 0.00 24 1011.6
20260903055706 25 263 30.6 45.1 0.00 0.00 0.00 24 1011.5
20260903055206 25 274 32.2 41.8 0.00 0.00 0.00 24 1011.4
20260903054706 25 257 33.8 45.1 0.00 0.00 0.00 24 1011.3
20260903054205 25 269 30.6 41.8 0.00 0.00 0.00 24 1011.1
20260903053706 25 259 30.6 41.8 0.00 0.00 0.00 24 1011.3
20260903053205 25 271 29.0 46.7 0.00 0.00 0.00 24 1010.9
20260903052706 25 261 33.8 46.7 0.00 0.00 0.00 25 1010.9
20260903052206 25 262 25.7 49.9 0.00 0.00 0.00 24 1011.0
20260903051205 25 275 27.4 41.8 0.00 0.00 0.00 25 1010.9
20260903050705 25 278 32.2 53.1 0.00 0.00 0.00 25 1011.0
20260903050205 25 277 32.2 41.8 0.00 0.00 0.00 25 1010.9
20260903045706 25 280 27.4 38.6 0.00 0.00 0.00 27 1010.8
20260903045206 25 254 25.7 41.8 0.00 0.00 0.00 27 1011.0
20260903044706 25 261 29.0 40.2 0.00 0.00 0.00 26 1011.1
20260903044206 25 260 32.2 41.8 0.00 0.00 0.00 25 1010.8
20260903043706 25 255 27.4 41.8 0.00 0.00 0.00 25 1010.8
20260903042205 25 257 27.4 40.2 0.00 0.00 0.00 25 1010.6
20260903041705 25 256 24.1 40.2 0.00 0.00 0.00 25 1010.5
20260903041206 25 266 30.6 48.3 0.00 0.00 0.00 25 1010.5
20260903040205 25 268 29.0 48.3 0.00 0.00 0.00 25 1010.2
20260903035706 25 281 29.0 41.8 0.00 0.00 0.00 25 1010.3
20260903035206 25 263 35.4 53.1 0.00 0.00 0.00 26 1010.3
20260903034706 25 271 33.8 49.9 0.00 0.00 0.00 27 1010.2
20260903034205 25 281 29.0 41.8 0.00 0.00 0.00 28 1010.1
20260903033705 25 274 35.4 45.1 0.00 0.00 0.00 28 1010.0
20260903033205 25 263 38.6 51.5 0.00 0.00 0.00 27 1010.1
20260903032705 25 259 33.8 57.9 0.00 0.00 0.00 27 1010.0
20260903032206 25 289 29.0 45.1 0.00 0.00 0.00 27 1010.3
20260903031706 25 281 25.7 41.8 0.00 0.00 0.00 28 1010.2
20260903031206 25 274 32.2 49.9 0.00 0.00 0.00 27 1010.3
20260903030705 25 288 32.2 48.3 0.00 0.00 0.00 27 1010.2
20260903030205 25 270 27.4 35.4 0.00 0.00 0.00 30 1010.5
20260903025705 25 249 33.8 45.1 0.00 0.00 0.00 29 1010.4
20260903025205 25 263 27.4 46.7 0.00 0.00 0.00 29 1010.4
20260903024705 25 267 35.4 49.9 0.00 0.00 0.00 28 1010.5